Location: �quirre
(50.4736°N, 2.2351°E)
Time: 03:47:40
(UTC+00:00)

CZ-4B R/B - Pass Details

Date: 07 August 2020
Orbit: 702 x 803 km, 98.9° (Epoch: 19 September)

Event Time Altitude Azimuth Distance (km) Brightness Sun altitude
Rises 02:34:45 0° 12° (NNE) 3,135 7.9 -14.8°
Reaches altitude 10° 02:37:04 10° 9° (N) 2,201 6.8 -14.5°
Maximum altitude 02:41:47 59° 291° (WNW) 815 3.5 -14.0°
Enters shadow 02:44:51 21° 217° (SW) 1,558 4.5 -13.7°
